{"data":{"norad_id":42844,"intl_designator":"2017-042V","name":"NANOACE","alt_names":[],"object_type":"PAYLOAD","status":"ACTIVE","operator":null,"country":"US","launch_date":"2017-07-14","launch_site_code":"TYMSC","launch_vehicle":null,"mission":null,"orbit_class":"UNKNOWN","rcs_meters":null,"size_class":null,"mass_kg":null,"dimensions":null,"purposes":[],"wikipedia_slug":null,"has_3d_model":false,"image_url":null,"decayed_at":null,"tle_current":{"epoch":"2026-09-19T22:43:48.123264Z","epoch_age_seconds":96133,"freshness":"FRESH","line1":"1 42844U 17042V   26262.94708476  .00008397  00000+0  32515-3 0  9994","line2":"2 42844  97.3803  75.8968 0004968  52.1105 308.0583 15.26411804502521","mean_motion":15.26411804,"eccentricity":0.0004968,"inclination_deg":97.3803,"raan_deg":75.8968,"arg_perigee_deg":52.1105,"mean_anomaly_deg":308.0583,"bstar":0.00032515,"rev_number":50252,"period_min":94.338893097292,"perigee_km":483.13894967565,"apogee_km":489.95970200901,"semimajor_km":6864.6863258423,"source":"CELESTRAK","updated_at":"2026-09-20T09:00:14.219011Z"}}}